[[{"header":{"parameterUnit":"m.s-1","parameterCategory":1,"la1":30.2991,"la2":30.254,"lo1":-89.0895,"lo2":-89.0444,"dy":0.0017,"dx":0.0017,"nx":28,"ny":28,"refTime":"2025-05-30T09:00:00:Z","depth":0,"parameterNumber":2,"parameterNumberName":"U-component_of_WINDS"},"data":[0,0,0,0,0,0,0,0,0,0,0,0,0,0,0,0,0,0,0,0,0,0,0,0,0,0,0,0,0,0,0,0,0,0,0,0,0,0,0,0,0,0,0,0,0,0,0,0,0,0,0,0,0,0,0,0,0,0,0.9274,0.9274,0,0.9342,0.9343,0.9344,0.9414,0.9415,0.9416,0.9417,0.9486,0.9487,0.9488,0,0,0,0,0,0,0,0,0,0,0,0,0,0.9203,0.9204,0.9274,0.9274,0.9275,0.9342,0.9343,0.9344,0.9414,0.9415,0.9416,0.9417,0.9486,0.9487,0.9488,0,0,0,0,0,0,0,0,0,0,0,0,0,0.9249,0.9204,0.9273,0.9318,0.9323,0.9342,0.9343,0.9344,0.9413,0.9415,0.9416,0.9418,0.9485,0.9487,0.9488,0.9468,0,0,0.9492,0.9493,0,0,0,0,0,0,0,0,0.9246,0.9251,0.9311,0.9315,0.932,0.9371,0.9344,0.9386,0.9413,0.9379,0.9417,0.9418,0.9446,0.9451,0.9461,0.9471,0.9474,0.9492,0.9493,0.9494,0.9494,0,0,0,0,0,0,0,0.9243,0.9249,0.9301,0.9312,0.9317,0.9335,0.9343,0.9352,0.9404,0.9382,0.9387,0.9394,0.9449,0.9459,0.9463,0.9475,0.9492,0.9494,0.9495,0.9495,0.9473,0.9472,0,0,0,0,0,0,0.9233,0.9246,0.9299,0.9303,0.9286,0.9335,0.9344,0.9353,0.9404,0.9413,0.9393,0.9397,0.9456,0.9461,0.9466,0.9445,0.9494,0.9495,0.9496,0.9474,0.9473,0.9471,0,0,0,0,0,0,0.9231,0.9237,0.9296,0.9276,0.9285,0.9335,0.9344,0.9354,0.9364,0.9412,0.9422,0.9394,0.9457,0.9464,0.9467,0.9449,0.9496,0.9497,0.9476,0.9474,0.9472,0.9404,0,0,0,0,0,0,0.9229,0.9236,0.9229,0.9275,0.9285,0.9296,0.9343,0.9354,0.9366,0.9372,0.9415,0.9424,0.9459,0.9464,0.9468,0.9451,0.9498,0.9478,0.9475,0.9473,0.9408,0.94,0.9393,0,0,0,0,0,0.9226,0.9207,0.9228,0.9234,0.9277,0.9295,0.93,0.9342,0.9364,0.9358,0.9389,0.9422,0.945,0.9464,0.9469,0.9452,0.9479,0.9476,0.9473,0.9412,0.9402,0.9393,0,0,0,0,0,0,0.9157,0.9214,0.9238,0.9233,0.9258,0.9306,0.9299,0.933,0.9349,0.9354,0.9404,0.9413,0.941,0.9432,0.9447,0.9436,0.947,0.9467,0.9421,0.9412,0.9405,0.9399,0.9499,0,0,0,0,0,0.9141,0.915,0.92,0.9191,0.9202,0.9248,0.9257,0.9287,0.9315,0.9326,0.9358,0.9383,0.9398,0.9407,0.9423,0.9412,0.9422,0.9403,0.9396,0.9389,0.9386,0.9382,0.9374,0.946,0.946,0.946,0,0,0.9108,0.9141,0.9143,0.9178,0.9201,0.9209,0.9257,0.9264,0.927,0.9327,0.9332,0.9356,0.9388,0.9385,0.9385,0.9403,0.9365,0.9385,0.9379,0.938,0.9378,0.9369,0.9362,0.9458,0.9459,0.9459,0,0,0.9053,0.9078,0.9074,0.9096,0.9131,0.9162,0.916,0.9204,0.9222,0.9228,0.9271,0.928,0.9304,0.9325,0.9339,0.9292,0.9324,0.9297,0.9256,0.9251,0.9244,0.9238,0.9221,0.9214,0.9294,0.9293,0.9293,0,0.9008,0.9022,0.9067,0.9071,0.9085,0.9138,0.9133,0.9153,0.919,0.9199,0.9219,0.925,0.9276,0.9278,0.9266,0.9276,0.9276,0.9291,0.9242,0.9236,0.9231,0.9215,0.9209,0.929,0.929,0.9291,0.9291,0,0.8964,0.8974,0.8966,0.9001,0.9014,0.9014,0.9059,0.9067,0.9095,0.9124,0.9129,0.9162,0.9186,0.9189,0.9217,0.9194,0.9204,0.9232,0.9267,0.9219,0.9204,0.9198,0.9285,0.9286,0.9287,0.9288,0,0,0.8866,0.8927,0.8923,0.894,0.8982,0.899,0.8993,0.9016,0.9021,0.9046,0.9049,0.9069,0.9095,0.9111,0.9142,0.9138,0.9098,0.9166,0.9168,0.9151,0.9074,0.9052,0.9044,0.912,0.9119,0.9118,0.9071,0,0.8816,0.8824,0.8865,0.886,0.8869,0.8919,0.8921,0.8948,0.8975,0.8986,0.9017,0.9029,0.9063,0.9073,0.9072,0.9103,0.9083,0.9107,0.9122,0.9122,0.911,0.9037,0.9013,0.8968,0.9066,0.9065,0.9064,0,0.876,0.8781,0.8777,0.882,0.8825,0.8826,0.8851,0.8861,0.8892,0.8912,0.893,0.8965,0.8971,0.9004,0.9011,0.9027,0.9036,0.9052,0.9051,0.9053,0.9089,0.9035,0.8954,0.8947,0.9056,0.9057,0.9057,0,0.8687,0.8715,0.8716,0.8729,0.8779,0.8778,0.8799,0.8832,0.8843,0.8865,0.8873,0.8895,0.8907,0.8923,0.8963,0.8984,0.8966,0.9003,0.8982,0.8981,0.8974,0.8974,0.8892,0.8982,0.8982,0.8982,0.8983,0,0.8627,0.8622,0.8684,0.8684,0.868,0.8728,0.8723,0.8749,0.8777,0.8783,0.8829,0.8834,0.8887,0.8898,0.893,0.8931,0.8936,0.8952,0.896,0.8947,0.8945,0.8952,0.8956,0.8981,0.8981,0.8981,0.8982,0,0.8544,0.8585,0.859,0.8637,0.8649,0.8644,0.8684,0.8687,0.8717,0.8724,0.8729,0.8776,0.8792,0.8834,0.886,0.8881,0.8873,0.8889,0.8862,0.8867,0.8843,0.8844,0.8762,0.8753,0.885,0.8849,0.8848,0,0.8502,0.85,0.8547,0.8554,0.8573,0.8585,0.8597,0.8645,0.8655,0.8691,0.8688,0.8708,0.8725,0.8747,0.8784,0.8804,0.882,0.879,0.8823,0.881,0.8818,0.8817,0.8817,0.8782,0.8781,0.878,0.8779,0,0.8423,0.8444,0.846,0.8483,0.8496,0.8516,0.8539,0.8543,0.8596,0.8606,0.8622,0.8636,0.8662,0.868,0.8706,0.8728,0.8762,0.8768,0.8764,0.875,0.8734,0.8741,0.884,0.877,0.8771,0.8771,0.8772,0.8772,0.8359,0.8359,0.8392,0.8408,0.8431,0.8451,0.8456,0.8487,0.8501,0.8527,0.8554,0.8567,0.8599,0.8637,0.8656,0.8667,0.8685,0.868,0.8678,0.8675,0.8669,0.8734,0.8672,0.8673,0.8673,0.8673,0.8674,0,0.8282,0.8306,0.832,0.8351,0.8363,0.8395,0.8423,0.8431,0.8442,0.8468,0.8485,0.8503,0.8521,0.856,0.8581,0.8582,0.8598,0.8586,0.8586,0.859,0.8652,0.8653,0.8573,0.8573,0.8573,0.8573,0.8573,0.8573,0.8243,0.8244,0.8269,0.8282,0.8306,0.832,0.8332,0.8351,0.8373,0.8391,0.8407,0.8432,0.8463,0.8487,0.8505,0.8516,0.8521,0.8503,0.8519,0.8576,0.8586,0.8595,0.8596,0.8505,0.8504,0.8456,0.8455,0.8455]},{"header":{"parameterUnit":"m.s-1","parameterCategory":1,"la1":30.2991,"la2":30.254,"lo1":-89.0895,"lo2":-89.0444,"dy":0.0017,"dx":0.0017,"nx":28,"ny":28,"refTime":"2025-05-30T09:00:00:Z","depth":0,"parameterNumber":3,"parameterNumberName":"V-component_of_WINDS"},"data":[0,0,0,0,0,0,0,0,0,0,0,0,0,0,0,0,0,0,0,0,0,0,0,0,0,0,0,0,0,0,0,0,0,0,0,0,0,0,0,0,0,0,0,0,0,0,0,0,0,0,0,0,0,0,0,0,0,0,-1.3229,-1.3229,0,-1.3236,-1.3236,-1.3236,-1.324,-1.324,-1.324,-1.3241,-1.3245,-1.3245,-1.3245,0,0,0,0,0,0,0,0,0,0,0,0,0,-1.3219,-1.3219,-1.3229,-1.3229,-1.323,-1.3236,-1.3236,-1.3237,-1.324,-1.324,-1.324,-1.3241,-1.3245,-1.3245,-1.3245,0,0,0,0,0,0,0,0,0,0,0,0,0,-1.3224,-1.3219,-1.3229,-1.3232,-1.3233,-1.3236,-1.3236,-1.3237,-1.324,-1.324,-1.324,-1.3241,-1.3245,-1.3245,-1.3246,-1.3246,0,0,-1.3246,-1.3246,0,0,0,0,0,0,0,0,-1.3224,-1.3225,-1.3232,-1.3232,-1.3233,-1.3238,-1.3234,-1.324,-1.324,-1.3237,-1.3241,-1.3241,-1.3243,-1.3243,-1.3244,-1.3246,-1.3246,-1.3246,-1.3246,-1.3246,-1.3246,0,0,0,0,0,0,0,-1.3224,-1.3224,-1.3232,-1.3232,-1.3232,-1.3233,-1.3234,-1.3235,-1.324,-1.3238,-1.3238,-1.3239,-1.3243,-1.3244,-1.3244,-1.3246,-1.3246,-1.3246,-1.3246,-1.3246,-1.3251,-1.3251,0,0,0,0,0,0,-1.3223,-1.3224,-1.3232,-1.3232,-1.3228,-1.3233,-1.3234,-1.3236,-1.324,-1.324,-1.3239,-1.3239,-1.3244,-1.3244,-1.3244,-1.3247,-1.3246,-1.3246,-1.3246,-1.3251,-1.3251,-1.3251,0,0,0,0,0,0,-1.3223,-1.3224,-1.3232,-1.3228,-1.3229,-1.3234,-1.3235,-1.3236,-1.3237,-1.3241,-1.3241,-1.3239,-1.3244,-1.3244,-1.3246,-1.3247,-1.3246,-1.3247,-1.3251,-1.3251,-1.3251,-1.325,0,0,0,0,0,0,-1.3222,-1.3223,-1.3224,-1.3228,-1.323,-1.3233,-1.3235,-1.3236,-1.3238,-1.3238,-1.3241,-1.3242,-1.3244,-1.3246,-1.3246,-1.3247,-1.3247,-1.3251,-1.3251,-1.3251,-1.325,-1.325,-1.325,0,0,0,0,0,-1.3222,-1.3222,-1.3224,-1.3224,-1.323,-1.3233,-1.3234,-1.3237,-1.3238,-1.3238,-1.3241,-1.3242,-1.3247,-1.3246,-1.3247,-1.3247,-1.3251,-1.3251,-1.3251,-1.325,-1.325,-1.325,0,0,0,0,0,0,-1.3216,-1.3223,-1.3224,-1.3226,-1.3229,-1.3234,-1.3234,-1.3237,-1.3239,-1.3239,-1.3242,-1.3243,-1.3245,-1.3246,-1.3245,-1.3249,-1.3249,-1.3249,-1.3248,-1.3248,-1.3248,-1.3248,-1.3247,0,0,0,0,0,-1.3215,-1.3218,-1.3223,-1.3224,-1.3226,-1.323,-1.3231,-1.3234,-1.3237,-1.3238,-1.324,-1.3243,-1.3246,-1.3247,-1.3249,-1.3251,-1.3252,-1.3252,-1.3252,-1.3252,-1.3252,-1.3255,-1.3255,-1.3252,-1.3252,-1.3252,0,0,-1.3212,-1.3217,-1.3218,-1.3223,-1.3226,-1.3229,-1.3231,-1.3233,-1.3236,-1.3238,-1.3241,-1.3243,-1.3246,-1.3248,-1.325,-1.325,-1.3253,-1.3252,-1.3252,-1.3252,-1.3255,-1.3255,-1.3255,-1.3252,-1.3252,-1.3252,0,0,-1.321,-1.3213,-1.3215,-1.3218,-1.3223,-1.3226,-1.3227,-1.3232,-1.3234,-1.3237,-1.324,-1.3242,-1.3246,-1.3249,-1.325,-1.3252,-1.3253,-1.3252,-1.3252,-1.3255,-1.3255,-1.3256,-1.3257,-1.3258,-1.3252,-1.3252,-1.3252,0,-1.3206,-1.3211,-1.3215,-1.3219,-1.3222,-1.3226,-1.3228,-1.3231,-1.3236,-1.3238,-1.3238,-1.3244,-1.3246,-1.325,-1.3251,-1.3252,-1.3253,-1.3252,-1.3255,-1.3255,-1.3256,-1.3257,-1.3258,-1.3252,-1.3252,-1.3252,-1.3252,0,-1.3207,-1.3211,-1.3212,-1.3218,-1.3221,-1.3224,-1.3229,-1.3231,-1.3234,-1.3237,-1.3241,-1.3244,-1.3248,-1.3249,-1.325,-1.3254,-1.3254,-1.3255,-1.3255,-1.3256,-1.3258,-1.3258,-1.3252,-1.3252,-1.3252,-1.3252,0,0,-1.32,-1.3211,-1.3211,-1.3215,-1.3222,-1.3224,-1.3228,-1.3233,-1.3236,-1.3239,-1.3243,-1.3247,-1.3248,-1.325,-1.3252,-1.3255,-1.3258,-1.3255,-1.3255,-1.3257,-1.3263,-1.3263,-1.3264,-1.3259,-1.3259,-1.3259,-1.3263,0,-1.3199,-1.3207,-1.3212,-1.3217,-1.3221,-1.3226,-1.3229,-1.3234,-1.3237,-1.3241,-1.3245,-1.3248,-1.3249,-1.3251,-1.3253,-1.3257,-1.3259,-1.3256,-1.3262,-1.3262,-1.3262,-1.3265,-1.3264,-1.3268,-1.3264,-1.3264,-1.3264,0,-1.3199,-1.3205,-1.3211,-1.322,-1.3221,-1.3224,-1.3231,-1.3234,-1.324,-1.3242,-1.3246,-1.3249,-1.3253,-1.3253,-1.3259,-1.3257,-1.326,-1.3263,-1.3263,-1.3264,-1.3264,-1.3267,-1.327,-1.3271,-1.3265,-1.3265,-1.3265,0,-1.3195,-1.3204,-1.3209,-1.3212,-1.3222,-1.3224,-1.3228,-1.3234,-1.3237,-1.3243,-1.3245,-1.325,-1.3253,-1.3257,-1.3262,-1.3261,-1.3268,-1.3268,-1.3271,-1.3271,-1.3272,-1.3272,-1.3276,-1.3272,-1.3272,-1.3272,-1.3272,0,-1.3194,-1.3198,-1.3208,-1.3211,-1.3216,-1.3223,-1.3227,-1.3231,-1.3237,-1.3241,-1.3245,-1.3249,-1.3254,-1.3259,-1.3262,-1.3268,-1.3269,-1.3271,-1.3272,-1.3272,-1.3271,-1.3274,-1.3274,-1.3273,-1.3273,-1.3273,-1.3273,0,-1.319,-1.3197,-1.3204,-1.3213,-1.3216,-1.3219,-1.3227,-1.3231,-1.3235,-1.3241,-1.3243,-1.3249,-1.3255,-1.326,-1.3267,-1.327,-1.3276,-1.3277,-1.3275,-1.3275,-1.3278,-1.3278,-1.3285,-1.3287,-1.3281,-1.3281,-1.3281,0,-1.319,-1.3193,-1.3204,-1.3208,-1.3212,-1.3218,-1.3223,-1.3229,-1.3233,-1.3241,-1.3244,-1.3251,-1.3257,-1.3266,-1.3271,-1.3277,-1.3279,-1.3281,-1.3279,-1.3279,-1.328,-1.328,-1.3281,-1.3281,-1.3281,-1.3281,-1.3281,0,-1.3189,-1.3192,-1.3199,-1.3207,-1.3213,-1.3219,-1.3225,-1.3228,-1.3236,-1.3241,-1.3248,-1.3252,-1.3261,-1.3268,-1.3275,-1.3279,-1.3281,-1.3281,-1.3283,-1.3282,-1.3281,-1.3283,-1.3276,-1.3281,-1.3281,-1.3281,-1.3281,-1.3281,-1.3187,-1.3191,-1.32,-1.3208,-1.3214,-1.3221,-1.3225,-1.3231,-1.3238,-1.3246,-1.3249,-1.3257,-1.3264,-1.3274,-1.3278,-1.3284,-1.3284,-1.3286,-1.3286,-1.3287,-1.3287,-1.328,-1.3285,-1.3285,-1.3285,-1.3285,-1.3285,0,-1.3187,-1.3194,-1.3201,-1.3211,-1.3218,-1.3221,-1.3229,-1.3234,-1.3241,-1.3248,-1.3254,-1.3263,-1.327,-1.3277,-1.3284,-1.3288,-1.3289,-1.329,-1.329,-1.3291,-1.3286,-1.3285,-1.3289,-1.3289,-1.3289,-1.3289,-1.3289,-1.3289,-1.3188,-1.3196,-1.3202,-1.3213,-1.3219,-1.3228,-1.3232,-1.3239,-1.3245,-1.3255,-1.3262,-1.3266,-1.3273,-1.3282,-1.3289,-1.3291,-1.3294,-1.3294,-1.3296,-1.3291,-1.3291,-1.3291,-1.329,-1.3294,-1.3294,-1.3301,-1.3301,-1.3301]}]]